| time (UTC) | temp F | wind direction | speed knots | gust knots | rain 1hr in | rain 24hr in | rain mn in | humidity % | barometer mb |
| 20260504202637 | 71 | 225 | 4.3 | 6.1 | 0.00 | 0.00 | 0.00 | 35 | 1006.7 |
| 20260504202135 | 71 | 208 | 2.6 | 2.6 | 0.00 | 0.00 | 0.00 | 37 | 1006.8 |
| 20260504201631 | 71 | 174 | 3.5 | 6.1 | 0.00 | 0.00 | 0.00 | 36 | 1006.7 |
| 20260504201129 | 71 | 178 | 4.3 | 5.2 | 0.00 | 0.00 | 0.00 | 36 | 1006.8 |
| 20260504200626 | 72 | 249 | 1.7 | 2.6 | 0.00 | 0.00 | 0.00 | 36 | 1006.7 |
| 20260504200123 | 73 | 232 | 2.6 | 2.6 | 0.00 | 0.00 | 0.00 | 35 | 1006.9 |
| 20260504195618 | 73 | 240 | 7.0 | 12.2 | 0.00 | 0.00 | 0.00 | 34 | 1006.8 |
| 20260504195115 | 72 | 148 | 1.7 | 2.6 | 0.00 | 0.00 | 0.00 | 36 | 1007.0 |
| 20260504194612 | 72 | 208 | 0.9 | 0.9 | 0.00 | 0.00 | 0.00 | 37 | 1007.1 |
| 20260504194108 | 71 | 206 | 3.5 | 5.2 | 0.00 | 0.00 | 0.00 | 37 | 1007.1 |
| 20260504193604 | 71 | 231 | 3.5 | 5.2 | 0.00 | 0.00 | 0.00 | 37 | 1007.1 |
| 20260504193103 | 71 | 228 | 2.6 | 4.3 | 0.00 | 0.00 | 0.00 | 39 | 1007.3 |
| 20260504192601 | 71 | 214 | 3.5 | 4.3 | 0.00 | 0.00 | 0.00 | 39 | 1007.2 |
| 20260504192058 | 73 | 254 | 5.2 | 7.0 | 0.00 | 0.00 | 0.00 | 35 | 1007.4 |
| 20260504191556 | 72 | 252 | 4.3 | 5.2 | 0.00 | 0.00 | 0.00 | 36 | 1007.3 |
| 20260504191052 | 71 | 87 | 2.6 | 2.6 | 0.00 | 0.00 | 0.00 | 37 | 1007.3 |
| 20260504190549 | 70 | 224 | 3.5 | 4.3 | 0.00 | 0.00 | 0.00 | 38 | 1007.4 |
| 20260504190045 | 70 | 216 | 6.1 | 8.7 | 0.00 | 0.00 | 0.00 | 37 | 1007.5 |
| 20260504185542 | 71 | 216 | 7.0 | 7.8 | 0.00 | 0.00 | 0.00 | 39 | 1007.6 |
| 20260504185038 | 71 | 215 | 4.3 | 6.1 | 0.00 | 0.00 | 0.00 | 38 | 1007.5 |
| 20260504184534 | 71 | 200 | 4.3 | 5.2 | 0.00 | 0.00 | 0.00 | 39 | 1007.6 |
| 20260504184029 | 71 | 227 | 3.5 | 6.1 | 0.00 | 0.00 | 0.00 | 39 | 1007.6 |
| 20260504183527 | 70 | 187 | 6.1 | 8.7 | 0.00 | 0.00 | 0.00 | 40 | 1007.6 |
| 20260504183025 | 70 | 225 | 4.3 | 6.1 | 0.00 | 0.00 | 0.00 | 39 | 1007.6 |
| 20260504182521 | 69 | 154 | 5.2 | 7.0 | 0.00 | 0.00 | 0.00 | 40 | 1007.8 |
| 20260504182019 | 69 | 231 | 4.3 | 5.2 | 0.00 | 0.00 | 0.00 | 39 | 1008.0 |
| 20260504181516 | 69 | 186 | 0.9 | 0.9 | 0.00 | 0.00 | 0.00 | 43 | 1007.8 |
| 20260504181014 | 68 | 177 | 1.7 | 4.3 | 0.00 | 0.00 | 0.00 | 41 | 1007.7 |
| 20260504180513 | 69 | 210 | 2.6 | 4.3 | 0.00 | 0.00 | 0.00 | 40 | 1007.8 |
| 20260504180011 | 68 | 288 | 2.6 | 4.3 | 0.00 | 0.00 | 0.00 | 41 | 1007.9 |
| 20260504175508 | 69 | 231 | 2.6 | 5.2 | 0.00 | 0.00 | 0.00 | 39 | 1008.2 |
| 20260504175005 | 69 | 181 | 7.8 | 9.6 | 0.00 | 0.00 | 0.00 | 40 | 1008.1 |
| 20260504174503 | 70 | 181 | 2.6 | 2.6 | 0.00 | 0.00 | 0.00 | 39 | 1008.0 |
| 20260504174000 | 68 | 165 | 3.5 | 4.3 | 0.00 | 0.00 | 0.00 | 40 | 1008.0 |
| 20260504173456 | 69 | 211 | 2.6 | 4.3 | 0.00 | 0.00 | 0.00 | 40 | 1008.2 |
| 20260504172954 | 69 | 246 | 5.2 | 6.1 | 0.00 | 0.00 | 0.00 | 40 | 1008.3 |
| 20260504172449 | 68 | 215 | 6.1 | 7.8 | 0.00 | 0.00 | 0.00 | 41 | 1008.3 |
| 20260504171946 | 68 | 222 | 1.7 | 2.6 | 0.00 | 0.00 | 0.00 | 42 | 1008.4 |
| 20260504171443 | 68 | 236 | 9.6 | 11.3 | 0.00 | 0.00 | 0.00 | 40 | 1008.3 |
| 20260504170940 | 68 | 215 | 5.2 | 7.0 | 0.00 | 0.00 | 0.00 | 41 | 1008.1 |
| 20260504170436 | 67 | 256 | 2.6 | 4.3 | 0.00 | 0.00 | 0.00 | 42 | 1008.6 |
| 20260504160356 | 64 | 236 | 3.5 | 4.3 | 0.00 | 0.00 | 0.00 | 42 | 1009.4 |
| 20260504150820 | 61 | 158 | 4.3 | 6.1 | 0.00 | 0.00 | 0.00 | 45 | 1009.7 |
| 20260504150317 | 60 | 209 | 6.1 | 7.8 | 0.00 | 0.00 | 0.00 | 45 | 1009.7 |
| 20260504141247 | 59 | 197 | 1.7 | 2.6 | 0.00 | 0.00 | 0.00 | 46 | 1010.2 |
| 20260504140743 | 59 | 272 | 6.1 | 7.8 | 0.00 | 0.00 | 0.00 | 45 | 1010.3 |
| 20260504140239 | 58 | 225 | 6.1 | 7.8 | 0.00 | 0.00 | 0.00 | 45 | 1010.4 |
| 20260504130708 | 52 | 172 | 4.3 | 7.0 | 0.00 | 0.00 | 0.00 | 53 | 1010.7 |
| 20260504130203 | 51 | 79 | 1.7 | 1.7 | 0.00 | 0.00 | 0.00 | 54 | 1010.8 |
| 20260504120128 | 50 | 240 | 3.5 | 5.2 | 0.00 | 0.00 | 0.00 | 55 | 1011.4 |
| 20260504110555 | 49 | 175 | 3.5 | 4.3 | 0.00 | 0.00 | 0.00 | 55 | 1011.2 |
| 20260504100517 | 46 | 179 | 0.0 | 0.0 | 0.00 | 0.00 | 0.00 | 59 | 1011.1 |
| 20260504081904 | 46 | 291 | 1.7 | 2.6 | 0.00 | 0.00 | 0.00 | 58 | 1011.1 |
| 20260504081401 | 46 | 225 | 0.9 | 0.9 | 0.00 | 0.00 | 0.00 | 58 | 1011.2 |
| 20260504080857 | 46 | 125 | 1.7 | 1.7 | 0.00 | 0.00 | 0.00 | 58 | 1011.1 |
| 20260504080354 | 46 | 166 | 0.0 | 0.9 | 0.00 | 0.00 | 0.00 | 58 | 1011.3 |
| 20260504070321 | 47 | 194 | 0.0 | 0.9 | 0.00 | 0.00 | 0.00 | 56 | 1011.3 |
| 20260504060242 | 48 | 191 | 0.0 | 0.9 | 0.00 | 0.00 | 0.00 | 54 | 1011.1 |
| 20260504050710 | 48 | 265 | 5.2 | 7.0 | 0.00 | 0.00 | 0.00 | 55 | 1011.4 |
| 20260504050206 | 48 | 199 | 1.7 | 1.7 | 0.00 | 0.00 | 0.00 | 55 | 1011.3 |
| 20260504045703 | 48 | 187 | 0.0 | 0.0 | 0.00 | 0.00 | 0.00 | 57 | 1011.4 |
| 20260504045158 | 48 | 194 | 0.9 | 1.7 | 0.00 | 0.00 | 0.00 | 57 | 1011.3 |
| 20260504044656 | 48 | 172 | 0.9 | 0.9 | 0.00 | 0.00 | 0.00 | 56 | 1011.3 |
| 20260504044153 | 49 | 188 | 0.0 | 0.9 | 0.00 | 0.00 | 0.00 | 56 | 1011.0 |
| 20260504043650 | 50 | 187 | 0.0 | 0.9 | 0.00 | 0.00 | 0.00 | 54 | 1011.1 |
| 20260504043147 | 50 | 183 | 0.0 | 0.9 | 0.00 | 0.00 | 0.00 | 53 | 1011.0 |
| 20260504042644 | 50 | 193 | 0.9 | 0.9 | 0.00 | 0.00 | 0.00 | 53 | 1011.2 |
| 20260504042141 | 51 | 181 | 0.0 | 0.0 | 0.00 | 0.00 | 0.00 | 53 | 1011.0 |
| 20260504041637 | 51 | 181 | 0.0 | 0.0 | 0.00 | 0.00 | 0.00 | 53 | 1011.3 |
| 20260504041133 | 51 | 182 | 0.0 | 0.0 | 0.00 | 0.00 | 0.00 | 52 | 1011.2 |
| 20260504040630 | 51 | 272 | 1.7 | 2.6 | 0.00 | 0.00 | 0.00 | 51 | 1011.2 |
| 20260504040127 | 51 | 237 | 1.7 | 1.7 | 0.00 | 0.00 | 0.00 | 50 | 1011.4 |
| 20260504035624 | 51 | 167 | 0.0 | 0.0 | 0.00 | 0.00 | 0.00 | 52 | 1011.2 |
| 20260504035120 | 51 | 191 | 0.9 | 1.7 | 0.00 | 0.00 | 0.00 | 52 | 1011.2 |
| 20260504034619 | 52 | 196 | 0.0 | 0.0 | 0.00 | 0.00 | 0.00 | 52 | 1011.1 |
| 20260504034115 | 52 | 209 | 0.9 | 0.9 | 0.00 | 0.00 | 0.00 | 50 | 1011.2 |
| 20260504033613 | 53 | 194 | 0.9 | 0.9 | 0.00 | 0.00 | 0.00 | 49 | 1011.0 |
| 20260504033110 | 53 | 202 | 0.0 | 0.9 | 0.00 | 0.00 | 0.00 | 48 | 1011.0 |
| 20260504032607 | 53 | 211 | 0.9 | 0.9 | 0.00 | 0.00 | 0.00 | 47 | 1011.3 |
| 20260504032104 | 53 | 290 | 1.7 | 1.7 | 0.00 | 0.00 | 0.00 | 47 | 1011.3 |
| 20260504031601 | 53 | 206 | 1.7 | 2.6 | 0.00 | 0.00 | 0.00 | 47 | 1011.3 |
| 20260504031056 | 53 | 240 | 1.7 | 1.7 | 0.00 | 0.00 | 0.00 | 47 | 1011.4 |
| 20260504030554 | 53 | 246 | 2.6 | 2.6 | 0.00 | 0.00 | 0.00 | 47 | 1011.2 |
| 20260504030050 | 54 | 213 | 0.9 | 0.9 | 0.00 | 0.00 | 0.00 | 46 | 1011.4 |
| 20260504025548 | 54 | 254 | 6.1 | 7.0 | 0.00 | 0.00 | 0.00 | 45 | 1011.5 |
| 20260504025044 | 53 | 316 | 3.5 | 5.2 | 0.00 | 0.00 | 0.00 | 47 | 1011.4 |
| 20260504024542 | 53 | 272 | 4.3 | 6.1 | 0.00 | 0.00 | 0.00 | 47 | 1011.6 |
| 20260504024038 | 52 | 277 | 2.6 | 4.3 | 0.00 | 0.00 | 0.00 | 50 | 1011.7 |
| 20260504023535 | 52 | 273 | 1.7 | 1.7 | 0.00 | 0.00 | 0.00 | 51 | 1011.7 |
| 20260504023031 | 52 | 314 | 4.3 | 6.1 | 0.00 | 0.00 | 0.00 | 50 | 1011.7 |
| 20260504022526 | 52 | 236 | 2.6 | 2.6 | 0.00 | 0.00 | 0.00 | 50 | 1011.5 |
| 20260504022023 | 52 | 229 | 1.7 | 1.7 | 0.00 | 0.00 | 0.00 | 50 | 1011.7 |
| 20260504021521 | 52 | 265 | 7.0 | 7.8 | 0.00 | 0.00 | 0.00 | 50 | 1011.8 |
| 20260504021018 | 53 | 291 | 4.3 | 5.2 | 0.00 | 0.00 | 0.00 | 50 | 1011.8 |
| 20260504020514 | 53 | 351 | 6.1 | 7.0 | 0.00 | 0.00 | 0.00 | 50 | 1012.0 |
| 20260504020011 | 53 | 298 | 2.6 | 4.3 | 0.00 | 0.00 | 0.00 | 50 | 1011.9 |
| 20260504015507 | 53 | 307 | 2.6 | 4.3 | 0.00 | 0.00 | 0.00 | 49 | 1011.7 |
| 20260504015003 | 53 | 320 | 3.5 | 5.2 | 0.00 | 0.00 | 0.00 | 49 | 1011.7 |
| 20260504014459 | 52 | 233 | 1.7 | 1.7 | 0.00 | 0.00 | 0.00 | 50 | 1011.7 |
| 20260504013956 | 53 | 255 | 1.7 | 1.7 | 0.00 | 0.00 | 0.00 | 50 | 1011.8 |
| 20260504013455 | 53 | 308 | 5.2 | 6.1 | 0.00 | 0.00 | 0.00 | 49 | 1011.6 |
| 20260504012950 | 53 | 329 | 6.1 | 7.0 | 0.00 | 0.00 | 0.00 | 49 | 1011.7 |
| 20260504012449 | 52 | 293 | 7.0 | 8.7 | 0.00 | 0.00 | 0.00 | 49 | 1011.5 |
| 20260504011947 | 52 | 322 | 8.7 | 11.3 | 0.00 | 0.00 | 0.00 | 49 | 1011.9 |
| 20260504011442 | 52 | 335 | 5.2 | 6.1 | 0.00 | 0.00 | 0.00 | 51 | 1011.7 |
| 20260504010939 | 52 | 324 | 3.5 | 4.3 | 0.00 | 0.00 | 0.00 | 51 | 1011.5 |
| 20260504010434 | 52 | 230 | 0.9 | 0.9 | 0.00 | 0.00 | 0.00 | 52 | 1011.6 |
| 20260504005931 | 52 | 275 | 2.6 | 2.6 | 0.00 | 0.00 | 0.00 | 51 | 1011.4 |
| 20260504005428 | 53 | 196 | 0.9 | 0.9 | 0.00 | 0.00 | 0.00 | 50 | 1011.4 |
| 20260504004925 | 53 | 278 | 2.6 | 2.6 | 0.00 | 0.00 | 0.00 | 50 | 1011.6 |
| 20260504004423 | 53 | 3 | 3.5 | 5.2 | 0.00 | 0.00 | 0.00 | 49 | 1011.3 |
| 20260504003920 | 53 | 310 | 2.6 | 2.6 | 0.00 | 0.00 | 0.00 | 48 | 1011.4 |
| 20260504003416 | 53 | 306 | 7.0 | 8.7 | 0.00 | 0.00 | 0.00 | 47 | 1011.2 |
| 20260504002913 | 53 | 312 | 6.1 | 8.7 | 0.00 | 0.00 | 0.00 | 47 | 1011.3 |
| 20260504002410 | 53 | 234 | 3.5 | 5.2 | 0.00 | 0.00 | 0.00 | 47 | 1011.2 |
| 20260504001907 | 53 | 304 | 4.3 | 5.2 | 0.00 | 0.00 | 0.00 | 46 | 1011.2 |
| 20260504001405 | 53 | 262 | 9.6 | 11.3 | 0.00 | 0.00 | 0.00 | 46 | 1011.0 |
| 20260504000901 | 53 | 219 | 1.7 | 2.6 | 0.00 | 0.00 | 0.00 | 47 | 1011.1 |
| 20260504000358 | 52 | 295 | 2.6 | 2.6 | 0.00 | 0.00 | 0.00 | 51 | 1011.0 |
| 20260503235855 | 52 | 198 | 0.0 | 0.9 | 0.00 | 0.00 | 0.00 | 51 | 1010.9 |
| 20260503235353 | 52 | 143 | 0.9 | 1.7 | 0.00 | 0.00 | 0.00 | 51 | 1010.7 |
| 20260503234850 | 52 | 135 | 0.9 | 0.9 | 0.00 | 0.00 | 0.00 | 49 | 1010.6 |
| 20260503234348 | 52 | 153 | 0.0 | 0.0 | 0.00 | 0.00 | 0.00 | 49 | 1010.7 |
| 20260503233846 | 53 | 137 | 0.9 | 0.9 | 0.00 | 0.00 | 0.00 | 49 | 1010.6 |
| 20260503233342 | 54 | 195 | 0.0 | 0.9 | 0.00 | 0.00 | 0.00 | 48 | 1010.4 |
| 20260503232838 | 55 | 192 | 0.0 | 0.0 | 0.00 | 0.00 | 0.00 | 43 | 1010.4 |
| 20260503232335 | 56 | 260 | 3.5 | 4.3 | 0.00 | 0.00 | 0.00 | 41 | 1010.4 |
| 20260503231834 | 56 | 258 | 2.6 | 2.6 | 0.00 | 0.00 | 0.00 | 41 | 1010.3 |
| 20260503231330 | 56 | 245 | 1.7 | 1.7 | 0.00 | 0.00 | 0.00 | 42 | 1010.6 |
| 20260503230826 | 55 | 212 | 0.9 | 0.9 | 0.00 | 0.00 | 0.00 | 42 | 1010.5 |
| 20260503230323 | 55 | 247 | 2.6 | 2.6 | 0.00 | 0.00 | 0.00 | 42 | 1010.3 |
| 20260503225821 | 55 | 254 | 2.6 | 2.6 | 0.00 | 0.00 | 0.00 | 44 | 1010.4 |
| 20260503225317 | 55 | 201 | 0.9 | 0.9 | 0.00 | 0.00 | 0.00 | 44 | 1010.5 |
| 20260503224813 | 55 | 242 | 1.7 | 1.7 | 0.00 | 0.00 | 0.00 | 43 | 1010.5 |
| 20260503224311 | 55 | 287 | 4.3 | 6.1 | 0.00 | 0.00 | 0.00 | 43 | 1010.4 |
| 20260503223808 | 55 | 149 | 0.9 | 0.9 | 0.00 | 0.00 | 0.00 | 42 | 1010.7 |
| 20260503223306 | 56 | 312 | 3.5 | 5.2 | 0.00 | 0.00 | 0.00 | 42 | 1010.4 |
| 20260503222801 | 55 | 261 | 4.3 | 5.2 | 0.00 | 0.00 | 0.00 | 41 | 1010.4 |
| 20260503222300 | 56 | 313 | 6.1 | 7.8 | 0.00 | 0.00 | 0.00 | 41 | 1010.6 |
| 20260503221757 | 56 | 292 | 7.0 | 7.8 | 0.00 | 0.00 | 0.00 | 41 | 1010.6 |
| 20260503221255 | 57 | 286 | 6.1 | 6.1 | 0.00 | 0.00 | 0.00 | 40 | 1010.8 |
| 20260503220751 | 56 | 265 | 2.6 | 2.6 | 0.00 | 0.00 | 0.00 | 41 | 1010.7 |
| 20260503220249 | 56 | 317 | 2.6 | 2.6 | 0.00 | 0.00 | 0.00 | 41 | 1010.7 |
| 20260503215745 | 56 | 320 | 7.0 | 8.7 | 0.00 | 0.00 | 0.00 | 41 | 1010.8 |
| 20260503215242 | 56 | 275 | 6.1 | 7.8 | 0.00 | 0.00 | 0.00 | 42 | 1011.1 |
| 20260503214740 | 55 | 243 | 4.3 | 5.2 | 0.00 | 0.00 | 0.00 | 42 | 1010.9 |
| 20260503214237 | 55 | 276 | 6.1 | 7.8 | 0.00 | 0.00 | 0.00 | 43 | 1010.8 |
| 20260503213735 | 55 | 273 | 7.0 | 8.7 | 0.00 | 0.00 | 0.00 | 43 | 1010.8 |
| 20260503213232 | 54 | 283 | 6.1 | 7.8 | 0.00 | 0.00 | 0.00 | 43 | 1010.9 |
| 20260503212729 | 55 | 248 | 3.5 | 5.2 | 0.00 | 0.00 | 0.00 | 44 | 1010.8 |
| 20260503212227 | 55 | 324 | 4.3 | 4.3 | 0.00 | 0.00 | 0.00 | 44 | 1010.7 |
| 20260503211724 | 55 | 277 | 2.6 | 4.3 | 0.00 | 0.00 | 0.00 | 44 | 1010.8 |
| 20260503211220 | 54 | 238 | 4.3 | 6.1 | 0.00 | 0.00 | 0.00 | 45 | 1010.9 |
| 20260503210715 | 53 | 336 | 3.5 | 4.3 | 0.00 | 0.00 | 0.00 | 45 | 1010.9 |
| 20260503210213 | 53 | 331 | 7.8 | 7.8 | 0.00 | 0.00 | 0.00 | 45 | 1011.0 |
| 20260503205708 | 53 | 304 | 3.5 | 4.3 | 0.00 | 0.00 | 0.00 | 46 | 1010.9 |
| 20260503205205 | 53 | 282 | 2.6 | 2.6 | 0.00 | 0.00 | 0.00 | 45 | 1011.1 |
| 20260503204701 | 53 | 292 | 7.0 | 12.2 | 0.00 | 0.00 | 0.00 | 43 | 1010.7 |
| 20260503204159 | 53 | 259 | 5.2 | 6.1 | 0.00 | 0.00 | 0.00 | 43 | 1010.7 |
| 20260503203656 | 53 | 304 | 5.2 | 7.8 | 0.00 | 0.00 | 0.00 | 42 | 1010.7 |
| 20260503203154 | 55 | 256 | 6.1 | 7.8 | 0.00 | 0.00 | 0.00 | 41 | 1010.9 |